Temperature
20 20 21 21 24 25 23 23 24 23 23 22 22 22 22 22 22 20 18 17 17 17 16 16 17 17 17 17 17 17 17 17 17 17 17 17 17 17 17 17 17 17 17 18 18 18 18 18 18
20 21 20 23 25 24 23 23 23 23 22 22 21 22 22 21 20 19 17 17 17 17 16 16 17 17 17 17 17 17 17 17 17 17 17 17 17 17 17 17 17 17 17 17 17 17 17 17 17
21 21 22 25 25 24 23 23 23 23 22 22 22 21 21 20 19 18 17 17 17 17 16 16 17 17 17 17 17 17 17 17 17 17 17 17 17 17 17 17 17 17 17 17 17 17 17 17 17
20 21 23 25 24 23 23 23 23 23 22 22 22 22 20 19 19 18 17 17 17 17 16 16 17 17 17 17 17 17 17 17 17 17 17 17 17 17 17 17 17 17 17 17 17 17 17 17 17
21 23 25 24 23 23 24 23 23 23 23 22 22 22 20 18 18 18 17 17 17 16 16 16 17 17 17 17 17 17 17 17 17 17 17 17 17 17 17 17 17 17 17 17 17 17 17 17 17
22 25 25 24 23 23 24 23 23 23 23 22 22 22 20 18 18 17 17 17 17 16 16 16 16 16 16 16 16 16 16 16 17 17 17 17 17 17 16 17 17 16 16 16 16 17 17 17 17
24 25 24 24 23 23 23 23 23 23 23 22 22 22 20 19 18 17 17 17 17 16 16 16 16 16 16 16 16 16 16 16 16 16 17 17 17 16 16 16 16 16 16 16 16 16 16 16 16
22 25 24 24 23 23 23 23 23 23 23 21 21 22 21 19 18 17 17 17 17 17 17 16 16 16 16 16 16 16 16 16 16 16 16 16 16 16 16 16 16 16 16 16 16 16 16 16 16
22 24 24 23 23 23 23 23 22 22 22 21 21 21 20 19 18 18 17 17 17 17 17 17 17 16 16 16 16 16 16 16 16 16 16 16 16 15 16 16 16 16 16 16 16 16 16 16 16
24 24 24 24 24 24 23 23 23 23 23 22 21 20 19 18 18 18 18 18 18 17 17 17 17 16 16 16 16 16 16 16 16 16 15 15 15 15 15 16 16 16 16 16 15 16 15 15 15
24 24 24 24 23 23 23 23 23 23 23 23 22 20 19 19 19 18 18 18 18 17 17 17 17 17 16 16 16 16 16 16 16 15 15 15 15 15 15 15 15 15 15 15 15 15 15 15 15
24 24 23 23 22 23 23 23 23 22 22 22 21 20 19 19 19 18 18 18 18 17 17 17 17 17 17 16 16 16 16 15 16 15 15 15 15 15 15 15 15 15 15 15 15 15 15 15 15
24 24 23 23 22 22 22 22 22 22 21 21 20 19 19 19 19 18 18 18 18 17 17 17 17 17 17 16 16 16 16 15 15 15 15 15 15 15 15 15 15 15 15 15 15 15 15 15 15
24 23 23 23 23 22 22 22 22 21 20 20 20 20 19 19 19 19 18 18 18 18 17 17 17 16 16 16 16 16 16 15 15 15 15 15 15 15 15 15 15 15 15 14 14 15 15 15 14
23 24 24 23 23 23 23 23 22 21 20 20 20 20 19 19 18 18 18 18 18 18 17 17 17 16 16 16 16 16 16 16 15 15 15 15 15 15 15 15 15 15 14 14 14 14 14 14 14
24 24 23 23 23 22 23 22 22 20 20 20 20 19 19 19 18 18 18 18 18 17 17 17 17 16 16 16 16 16 16 15 15 15 15 15 15 15 15 15 15 15 14 14 14 14 14 14 14
24 24 23 23 23 23 23 22 22 20 20 20 20 20 19 19 18 18 18 17 17 17 17 17 17 16 16 16 16 16 15 15 15 15 15 15 15 15 15 15 15 14 14 14 14 14 14 14 14
24 24 23 23 23 23 22 22 22 20 20 21 20 20 19 19 18 18 17 17 17 17 17 17 16 16 16 16 16 16 15 15 15 15 15 15 15 15 15 15 14 14 14 14 14 14 14 14 14
24 23 23 23 23 22 22 22 22 21 20 20 20 20 19 19 18 17 17 17 17 17 16 16 16 16 16 16 16 15 15 15 15 15 15 15 15 15 15 14 14 14 14 14 14 14 14 14 14
23 23 23 23 22 22 23 23 22 21 20 20 20 20 19 19 18 17 17 17 17 17 16 16 16 16 16 16 15 15 15 15 15 15 15 15 15 15 14 14 14 14 14 14 14 14 14 14 14
23 23 23 23 22 23 23 23 23 22 20 19 19 19 19 18 18 17 17 17 16 16 16 16 16 16 16 15 15 15 15 15 15 15 15 15 15 15 15 14 14 14 14 14 14 14 14 14 14
23 23 23 22 23 23 23 23 23 23 21 20 19 19 18 18 17 17 17 16 16 16 16 16 16 16 15 15 15 15 15 15 15 15 15 15 15 14 14 14 14 14 14 14 14 14 14 14 14
23 22 23 22 23 23 23 23 23 22 22 21 20 19 18 17 17 17 16 16 16 16 16 16 16 15 15 15 15 15 15 15 15 15 14 14 14 14 14 14 14 14 14 14 14 14 14 14 14
22 22 22 22 23 22 23 22 22 23 22 22 21 19 18 17 17 16 16 16 16 16 16 16 15 15 15 15 15 15 15 15 15 14 14 14 14 14 14 14 14 14 14 14 14 14 14 14 14
23 23 22 22 22 22 22 22 22 22 22 21 20 19 18 17 17 16 16 16 16 16 16 15 15 15 15 15 15 15 15 15 14 14 14 14 14 14 14 14 14 14 14 14 14 14 14 14 14
23 23 22 21 22 22 22 22 22 21 20 19 19 19 18 17 17 16 16 16 15 15 15 15 15 15 15 15 15 15 14 14 14 14 14 14 14 14 14 14 14 14 14 14 14 14 14 14 13
22 22 22 22 22 21 22 22 22 21 20 20 19 19 18 17 17 16 16 16 15 15 15 15 15 15 15 15 15 14 14 14 14 14 14 14 14 14 14 13 13 13 13 13 13 13 13 13 13
22 22 22 21 21 21 21 22 22 21 21 20 20 19 18 17 16 16 16 15 15 15 15 15 15 15 15 15 14 14 14 14 14 14 13 13 13 13 13 13 13 13 13 13 13 13 13 13 13
21 21 21 21 21 21 21 21 22 21 21 20 20 18 17 17 16 16 15 15 15 15 15 15 15 15 15 14 14 14 14 14 14 13 13 13 13 13 13 13 13 13 13 13 13 13 13 13 13
21 21 21 21 21 20 20 21 22 21 20 20 19 18 17 16 16 15 15 15 15 15 15 14 14 14 14 14 14 14 14 14 13 13 13 13 13 13 13 13 13 13 13 13 13 13 13 13 13
Wind_Speed
2 1 2 2 2 3 7 5 4 5 4 5 5 5 5 6 5 5 4 4 4 4 5 6 8 8 9 9 9 9 9 9 10 10 10 10 11 11 11 11 12 13 13 13 13 12 12 12 12
0 1 2 2 0 4 6 5 6 6 5 5 4 4 5 6 6 5 4 4 4 5 5 7 8 8 8 9 9 9 9 9 10 10 10 10 11 11 12 12 12 12 13 13 13 13 12 12 13
1 1 1 0 3 5 6 5 6 6 5 2 3 4 4 5 5 4 5 5 5 6 6 8 8 8 8 9 9 9 9 9 10 10 10 10 11 11 11 12 12 12 13 13 12 12 13 13 13
2 1 1 3 8 7 6 6 6 6 4 3 3 5 5 5 4 6 7 5 6 6 6 8 7 7 8 8 9 9 9 10 10 10 10 10 11 11 11 11 12 12 13 13 12 12 13 13 13
1 1 3 6 8 7 6 5 4 4 3 3 4 6 6 5 6 7 6 5 5 6 6 8 7 7 8 9 9 9 10 10 9 9 10 11 11 11 11 12 13 13 13 13 12 12 12 13 13
1 1 3 6 8 6 5 4 4 4 5 4 4 5 6 6 7 6 6 5 5 5 6 7 8 7 8 9 9 10 10 10 10 10 10 11 11 11 12 12 13 14 14 14 13 13 13 14 14
1 2 5 7 7 6 4 3 3 4 5 4 3 4 5 7 6 6 5 5 5 5 5 5 6 7 8 9 9 9 10 10 11 11 11 11 11 12 12 13 13 13 13 14 14 16 16 16 15
1 2 6 6 6 5 4 4 3 3 4 4 2 3 5 7 8 7 6 5 4 4 5 5 6 6 6 8 9 9 10 10 10 10 10 10 11 12 12 12 13 13 14 15 15 17 18 17 16
1 3 5 5 4 5 4 4 3 3 5 4 3 3 6 9 9 7 6 5 4 4 4 4 5 5 6 7 7 7 8 7 7 9 8 7 8 10 11 13 13 14 14 15 15 16 16 15 15
0 3 4 3 3 4 4 3 3 4 4 4 5 6 8 9 9 7 5 5 5 4 4 4 4 5 5 5 5 5 6 6 6 7 7 7 9 9 10 13 13 13 13 13 13 12 11 9 10
2 3 4 3 3 3 3 3 2 2 3 3 5 8 9 8 7 5 4 3 3 4 4 4 4 4 4 4 5 5 5 5 5 6 7 7 7 7 7 7 8 9 8 9 9 8 8 8 8
3 3 2 2 2 2 2 2 2 1 2 3 5 8 9 8 6 4 3 2 3 3 3 4 3 4 4 4 4 4 4 4 4 5 6 6 5 5 6 5 6 6 6 7 7 7 8 9 9
3 3 2 2 2 2 2 2 1 2 2 4 7 8 8 7 5 4 3 2 3 3 3 3 2 3 4 4 3 3 4 4 5 4 5 5 4 5 5 6 5 6 6 6 6 6 8 8 8
3 3 2 2 2 2 2 1 1 1 3 6 7 7 7 6 5 4 3 3 3 3 3 3 2 2 3 3 2 3 3 4 4 4 5 5 5 5 5 5 5 5 5 6 6 7 6 6 7
3 3 3 2 2 2 3 1 0 2 4 6 6 6 5 5 4 3 3 2 2 2 3 3 2 2 2 3 3 3 3 3 4 4 4 5 5 5 5 5 5 5 6 6 6 6 6 6 6
3 3 2 2 1 1 3 1 3 2 4 5 5 5 4 4 4 3 2 2 2 2 3 4 3 3 3 2 2 2 3 3 3 3 3 4 5 5 4 4 4 5 5 5 4 4 5 5 5
4 2 1 1 1 1 2 1 2 2 4 4 5 5 4 4 3 2 1 2 2 2 2 3 3 3 3 3 2 2 3 3 3 3 3 3 4 4 4 3 4 5 4 4 4 3 4 4 5
2 2 1 1 1 2 3 2 0 2 4 4 4 4 4 3 2 2 2 2 2 2 2 2 3 3 3 2 3 3 3 3 3 3 3 3 3 3 4 3 4 4 3 3 3 4 3 3 4
2 3 2 1 0 2 3 3 2 2 4 4 4 4 4 3 2 2 2 2 3 2 2 3 3 3 3 2 2 2 2 2 2 2 3 3 3 3 3 3 3 3 3 3 3 3 4 3 3
4 3 2 0 1 2 3 3 1 1 3 3 4 4 4 3 3 3 3 3 2 2 2 3 3 3 3 2 2 2 2 2 3 2 3 2 2 2 2 3 3 3 3 3 3 3 2 2 1
4 4 3 3 2 3 4 3 3 3 3 3 3 3 3 3 3 3 3 3 3 2 3 3 3 3 3 4 3 3 3 3 3 2 2 2 2 2 2 2 3 3 3 3 3 3 3 2 2
4 2 3 4 5 3 4 3 2 3 3 3 4 4 3 3 2 2 2 3 3 3 3 3 3 3 3 4 4 4 3 3 3 2 2 2 2 2 1 2 2 3 2 3 3 3 2 2 2
2 1 3 5 6 6 4 5 2 3 3 2 3 4 4 3 3 2 3 2 2 2 3 3 3 3 3 3 3 4 3 2 2 2 3 2 2 1 1 1 1 2 2 3 3 3 2 2 2
2 3 3 5 6 6 3 5 2 2 1 1 3 4 4 3 3 3 2 2 2 2 3 3 3 3 3 3 4 4 4 3 3 3 3 2 2 1 1 1 1 2 2 2 2 3 3 3 3
4 4 4 4 5 3 1 4 3 1 1 1 1 3 3 3 3 3 3 3 3 3 3 4 4 4 4 4 4 4 4 4 4 3 3 3 2 1 1 2 2 2 2 2 3 3 3 4 4
4 5 4 4 4 3 3 4 0 2 1 1 1 2 2 3 3 3 3 3 4 4 4 5 5 5 4 4 4 4 4 3 3 3 3 3 3 2 2 2 2 2 2 2 3 3 3 3 4
4 4 3 5 5 5 3 2 2 2 1 1 2 2 2 3 3 3 3 3 4 5 5 6 6 6 5 5 5 4 4 4 4 4 4 3 2 2 3 3 3 2 2 2 2 2 3 3 3
3 3 4 4 5 5 4 4 2 2 2 1 1 2 1 2 2 3 3 3 3 4 4 5 6 6 6 6 5 4 5 5 4 4 4 4 4 3 3 3 3 3 2 3 3 3 3 3 3
4 4 4 4 5 5 5 2 0 2 2 2 2 2 2 2 2 3 2 2 2 2 3 4 5 5 5 5 6 5 5 5 4 4 4 4 4 4 4 4 4 3 3 3 3 3 3 3 3
4 5 5 6 6 6 7 4 1 1 2 2 2 2 2 2 2 2 2 2 1 1 2 3 3 4 4 5 5 5 5 5 5 5 5 5 4 4 4 4 4 3 3 3 4 4 4 3 3
Wind_Direction
186 219 252 249 202 99 83 84 89 93 73 65 64 65 65 47 33 69 82 68 59 64 58 62 48 44 45 46 48 57 63 63 65 66 66 66 66 65 69 73 74 77 80 83 86 88 91 92 92
268 264 254 255 161 105 88 90 91 80 97 101 82 75 72 68 62 86 95 84 78 70 60 55 47 42 44 47 50 57 62 63 66 67 67 66 65 65 68 73 76 77 80 82 85 88 90 90 91
168 268 295 65 69 75 94 91 96 100 109 105 89 65 57 72 81 90 94 102 90 74 65 63 46 42 44 48 53 57 63 64 66 66 67 65 65 68 70 73 74 77 80 81 84 88 91 92 92
235 219 190 89 86 75 90 107 118 124 111 83 100 93 81 70 82 98 107 105 91 80 70 68 49 46 48 51 56 60 64 66 65 65 67 68 67 71 74 72 72 77 80 79 82 88 92 94 93
248 239 117 101 89 86 88 99 121 108 100 94 96 96 95 92 99 109 111 103 89 81 73 72 61 53 53 57 64 64 65 67 69 69 70 70 69 70 75 74 75 77 80 79 81 86 95 95 92
226 181 123 107 100 96 95 111 118 99 99 106 106 101 95 116 119 116 113 104 87 78 74 77 84 67 61 60 64 66 67 69 69 71 72 71 70 71 74 77 78 80 81 79 76 78 90 94 90
60 106 105 110 112 106 100 114 106 105 106 101 110 104 115 131 128 128 119 106 94 84 76 72 77 87 88 71 63 65 69 70 69 70 72 71 72 73 76 78 78 80 81 81 76 81 90 90 88
14 129 121 115 117 102 104 122 98 91 95 106 127 105 120 139 141 136 124 111 98 86 78 75 72 71 79 87 76 71 71 71 73 75 77 80 83 81 81 81 78 80 82 82 80 81 85 84 83
244 141 123 117 118 110 125 129 112 106 116 120 109 80 107 135 146 144 135 126 111 95 83 74 73 74 75 78 88 90 87 79 90 91 89 89 84 82 82 75 78 80 81 81 81 81 84 87 85
150 122 103 101 107 118 133 128 132 145 133 131 128 121 131 148 155 152 145 129 114 102 91 79 77 76 79 79 84 77 82 81 77 81 85 82 81 79 80 83 80 80 83 84 81 82 87 87 87
95 101 101 109 116 130 137 127 135 141 114 115 139 142 147 153 155 155 143 119 104 100 96 83 83 83 80 87 80 75 77 81 79 81 89 88 90 94 85 86 93 92 91 87 88 87 78 77 74
111 99 108 108 122 153 137 122 118 85 63 81 123 136 146 152 152 152 139 120 114 105 99 93 88 90 83 85 85 81 84 84 82 82 87 91 91 91 90 89 85 87 86 85 83 82 84 80 78
121 112 104 120 145 143 120 128 123 82 83 113 128 139 148 152 152 151 147 143 135 131 124 109 97 87 86 80 77 80 78 79 87 84 84 92 96 96 96 91 85 85 88 92 86 84 82 79 75
114 119 112 126 145 154 145 128 162 78 128 138 142 149 156 159 163 164 166 162 148 147 139 123 115 104 97 94 87 81 85 88 84 86 85 89 92 94 96 96 95 90 87 86 89 88 85 81 78
151 151 134 110 139 160 194 164 178 89 150 153 152 152 158 167 177 187 185 177 161 151 145 130 128 119 112 99 84 88 92 94 90 89 84 87 92 96 99 97 98 99 99 98 92 90 88 86 83
182 188 167 108 152 166 227 187 83 117 164 163 159 157 166 176 188 189 191 185 163 151 142 137 146 145 126 107 106 106 107 104 100 92 87 87 96 96 98 96 99 104 105 102 99 98 95 90 85
197 203 184 152 159 207 226 261 90 135 177 179 176 173 173 171 177 168 167 164 155 160 153 148 149 150 135 121 116 104 110 110 101 94 90 89 93 103 110 106 111 110 109 108 109 100 96 95 90
219 243 226 200 135 217 229 257 278 167 194 197 190 185 178 174 163 148 149 151 154 160 166 155 152 156 139 136 130 117 111 113 99 96 106 100 104 114 120 133 129 123 121 119 122 115 105 99 99
251 250 259 302 242 250 253 273 291 204 204 205 197 193 186 172 149 140 143 146 156 160 166 158 161 159 154 147 147 139 133 120 107 101 100 106 109 123 133 145 143 142 136 139 141 130 123 120 127
224 240 262 171 127 254 272 277 267 173 186 200 195 190 186 174 159 153 157 154 158 158 170 172 166 164 163 164 164 156 131 122 114 109 100 103 125 137 157 169 159 157 151 161 158 152 148 149 200
228 254 276 288 268 222 266 239 190 147 156 172 193 197 190 186 184 169 174 169 168 169 177 179 175 167 169 168 158 141 126 137 138 127 115 104 119 142 168 173 184 178 179 178 185 186 192 178 181
238 261 262 255 259 254 263 273 198 178 169 174 187 193 195 184 179 176 182 183 179 182 185 183 176 172 170 168 170 163 166 167 164 151 141 135 129 142 138 159 191 191 188 189 199 205 209 204 189
270 276 250 250 258 260 243 263 215 172 205 182 176 186 192 189 185 191 191 196 190 178 180 185 177 176 177 179 179 189 184 180 161 153 151 151 147 145 143 168 191 202 204 208 206 209 221 219 225
183 203 208 223 241 247 245 258 249 191 253 208 175 179 186 185 186 195 192 194 194 184 183 183 180 180 184 192 193 194 186 185 178 178 170 171 165 169 170 202 203 218 224 222 215 216 217 231 238
223 255 245 226 224 241 192 256 260 43 360 288 214 189 180 182 187 190 194 199 203 199 192 189 186 188 190 199 205 202 199 200 203 197 191 198 189 193 212 224 217 216 231 235 231 231 232 227 227
231 250 266 272 272 276 231 246 277 48 357 250 216 193 179 185 195 198 206 212 211 206 203 198 197 195 195 203 214 214 204 206 210 214 206 206 205 203 214 228 232 231 231 239 234 246 243 242 234
227 230 273 275 276 266 238 234 242 160 173 143 150 169 180 196 203 205 207 218 216 208 207 207 204 201 199 206 216 215 206 207 210 213 210 209 213 212 219 225 224 226 228 241 244 250 249 249 247
265 210 219 246 268 267 254 253 258 203 224 204 201 211 206 211 208 204 202 214 218 213 212 212 212 208 204 207 211 213 209 207 213 214 213 215 217 218 221 227 225 225 226 236 246 253 258 246 235
191 205 229 241 261 276 277 268 47 271 261 250 244 236 235 231 219 207 204 201 212 213 211 212 213 214 210 211 211 208 208 205 206 213 219 222 225 220 224 229 231 228 232 238 237 247 246 246 234
236 239 235 252 251 255 276 279 77 261 266 271 270 247 231 213 193 182 180 170 186 207 219 221 219 213 211 214 212 209 204 203 207 211 215 218 220 223 228 229 228 224 230 241 244 245 246 247 248
Height
1508 1508 1508 1509 1507 1507 1514 1515 1512 1514 1515 1519 1519 1518 1518 1520 1522 1529 1530 1527 1526 1526 1525 1524 1522 1521 1520 1519 1519 1518 1517 1517 1516 1515 1514 1513 1513 1512 1511 1510 1509 1508 1507 1508 1508 1509 1509 1509 1510
1509 1508 1510 1509 1504 1511 1518 1514 1514 1516 1519 1520 1521 1520 1520 1523 1526 1528 1528 1528 1527 1527 1526 1525 1523 1522 1521 1521 1520 1519 1519 1518 1518 1517 1516 1515 1514 1514 1513 1512 1511 1511 1510 1510 1510 1510 1511 1511 1512
1509 1509 1511 1506 1507 1512 1518 1515 1516 1518 1520 1521 1521 1522 1523 1526 1528 1529 1529 1529 1529 1528 1527 1526 1524 1524 1523 1522 1521 1521 1520 1520 1519 1518 1518 1517 1516 1515 1515 1514 1513 1513 1512 1512 1512 1512 1512 1513 1513
1511 1512 1511 1508 1513 1514 1514 1516 1517 1519 1521 1522 1522 1523 1526 1529 1529 1530 1530 1530 1530 1529 1529 1527 1526 1525 1524 1523 1523 1522 1522 1521 1521 1520 1520 1519 1518 1517 1517 1516 1515 1514 1514 1514 1513 1513 1513 1514 1515
1511 1511 1509 1512 1515 1515 1515 1517 1518 1518 1520 1522 1522 1524 1527 1530 1530 1531 1531 1531 1531 1531 1530 1529 1527 1526 1526 1525 1524 1524 1523 1523 1522 1522 1521 1521 1520 1519 1519 1518 1517 1516 1516 1515 1514 1513 1513 1515 1516
1513 1509 1511 1516 1517 1517 1517 1519 1519 1519 1521 1523 1524 1525 1529 1531 1531 1532 1532 1532 1532 1532 1531 1530 1529 1528 1527 1527 1526 1526 1525 1525 1524 1524 1523 1523 1522 1521 1521 1520 1519 1519 1518 1516 1514 1510 1509 1514 1517
1513 1509 1513 1515 1518 1518 1519 1520 1519 1520 1522 1524 1525 1526 1529 1532 1532 1533 1533 1533 1533 1533 1532 1532 1532 1530 1529 1528 1528 1527 1527 1526 1526 1526 1525 1525 1524 1524 1523 1522 1522 1521 1520 1519 1515 1509 1510 1515 1519
1513 1511 1514 1515 1518 1519 1520 1521 1521 1521 1523 1526 1526 1526 1529 1532 1532 1533 1534 1534 1534 1534 1534 1533 1533 1532 1532 1531 1529 1529 1529 1528 1528 1528 1527 1527 1526 1526 1525 1525 1524 1524 1523 1522 1519 1517 1517 1519 1522
1514 1513 1516 1517 1518 1519 1520 1521 1523 1524 1524 1526 1527 1528 1530 1531 1532 1534 1535 1535 1535 1535 1535 1535 1534 1534 1533 1533 1531 1531 1530 1530 1530 1530 1529 1529 1529 1529 1528 1527 1526 1526 1525 1525 1524 1522 1523 1524 1525
1514 1514 1516 1517 1517 1518 1520 1521 1522 1523 1524 1525 1527 1529 1530 1531 1533 1534 1535 1536 1536 1536 1536 1536 1536 1535 1535 1534 1534 1533 1533 1532 1532 1532 1531 1531 1531 1531 1530 1529 1529 1528 1528 1528 1528 1527 1527 1528 1529
1515 1515 1517 1518 1519 1520 1520 1522 1523 1522 1523 1525 1527 1529 1531 1532 1534 1535 1536 1536 1537 1537 1537 1537 1537 1536 1536 1535 1535 1535 1534 1534 1534 1534 1533 1533 1533 1533 1532 1532 1532 1531 1531 1531 1531 1531 1531 1531 1531
1516 1517 1518 1519 1521 1521 1521 1522 1523 1524 1525 1526 1527 1529 1531 1532 1534 1535 1536 1537 1537 1538 1538 1538 1538 1538 1537 1537 1536 1536 1536 1536 1535 1535 1535 1535 1534 1535 1535 1534 1534 1534 1534 1534 1534 1534 1534 1534 1534
1517 1518 1520 1521 1521 1522 1522 1523 1524 1525 1526 1527 1528 1529 1531 1532 1534 1535 1536 1537 1537 1538 1538 1538 1538 1538 1538 1538 1537 1538 1537 1537 1537 1536 1537 1537 1536 1537 1536 1536 1535 1536 1536 1536 1536 1536 1536 1536 1536
1518 1519 1520 1521 1521 1522 1523 1524 1525 1525 1527 1527 1528 1530 1532 1533 1534 1535 1536 1537 1537 1538 1538 1538 1539 1539 1539 1539 1539 1539 1539 1538 1538 1538 1538 1538 1538 1538 1538 1538 1537 1538 1538 1538 1538 1538 1537 1537 1538
1519 1518 1519 1520 1520 1522 1522 1523 1524 1526 1527 1527 1529 1530 1532 1533 1534 1535 1536 1536 1537 1538 1538 1538 1539 1539 1539 1539 1539 1539 1539 1539 1539 1539 1540 1540 1539 1539 1540 1540 1539 1539 1539 1539 1539 1539 1539 1539 1539
1517 1517 1520 1520 1520 1522 1523 1525 1524 1526 1527 1527 1528 1530 1531 1533 1534 1535 1535 1536 1537 1537 1538 1538 1538 1539 1539 1539 1539 1540 1540 1540 1540 1540 1540 1541 1541 1541 1541 1541 1541 1541 1541 1541 1541 1541 1541 1541 1541
1516 1519 1520 1520 1520 1520 1521 1523 1524 1526 1526 1527 1528 1529 1531 1532 1533 1534 1535 1535 1536 1537 1538 1538 1539 1539 1539 1539 1540 1540 1540 1540 1541 1541 1541 1541 1542 1542 1542 1541 1542 1542 1542 1542 1542 1542 1542 1542 1542
1519 1518 1519 1520 1520 1521 1521 1521 1522 1525 1525 1525 1527 1528 1530 1531 1533 1534 1534 1535 1535 1536 1537 1538 1538 1539 1539 1539 1540 1540 1540 1541 1541 1541 1541 1542 1542 1542 1542 1542 1543 1543 1543 1543 1543 1543 1543 1543 1543
1515 1518 1519 1519 1519 1521 1520 1520 1520 1523 1524 1525 1526 1527 1529 1531 1532 1533 1533 1534 1535 1536 1536 1537 1538 1538 1539 1539 1540 1540 1541 1541 1541 1542 1542 1542 1542 1542 1543 1543 1543 1543 1543 1543 1544 1543 1544 1544 1544
1516 1518 1518 1519 1519 1520 1519 1518 1518 1521 1523 1524 1525 1526 1528 1530 1531 1532 1533 1533 1534 1534 1535 1536 1537 1537 1538 1538 1539 1540 1540 1541 1541 1542 1542 1542 1543 1543 1543 1543 1543 1543 1543 1543 1544 1544 1544 1544 1544
1516 1517 1518 1520 1519 1518 1518 1517 1516 1518 1522 1524 1525 1526 1527 1529 1530 1531 1532 1533 1533 1533 1534 1535 1536 1537 1537 1538 1539 1539 1540 1540 1541 1541 1542 1542 1543 1543 1543 1543 1544 1543 1544 1544 1544 1544 1544 1544 1544
1517 1516 1517 1519 1519 1517 1518 1521 1514 1514 1518 1521 1523 1525 1526 1527 1529 1530 1531 1532 1532 1533 1533 1534 1535 1536 1537 1537 1538 1538 1539 1540 1540 1541 1541 1542 1542 1542 1542 1543 1543 1544 1543 1543 1544 1544 1544 1544 1544
1515 1516 1516 1517 1516 1517 1516 1519 1513 1513 1515 1517 1521 1523 1525 1526 1527 1529 1530 1530 1531 1532 1532 1533 1534 1535 1535 1536 1537 1538 1539 1539 1540 1540 1541 1541 1541 1541 1542 1542 1542 1543 1543 1543 1543 1543 1543 1543 1543
1516 1516 1516 1515 1515 1521 1516 1519 1516 1511 1513 1515 1518 1521 1523 1525 1526 1527 1528 1529 1530 1530 1531 1531 1532 1533 1534 1535 1536 1537 1538 1538 1539 1539 1540 1540 1540 1540 1541 1541 1541 1542 1542 1542 1542 1542 1542 1542 1542
1515 1516 1521 1522 1522 1519 1515 1518 1515 1510 1513 1515 1517 1519 1521 1523 1524 1525 1526 1527 1527 1528 1529 1530 1530 1531 1532 1533 1534 1535 1536 1537 1538 1538 1539 1539 1539 1540 1540 1540 1540 1540 1541 1541 1541 1541 1541 1541 1541
1514 1514 1524 1529 1524 1518 1516 1517 1511 1512 1515 1516 1517 1519 1520 1521 1523 1523 1524 1525 1525 1526 1527 1528 1529 1530 1531 1531 1532 1534 1534 1535 1536 1536 1537 1538 1538 1538 1538 1538 1539 1539 1539 1539 1539 1540 1540 1540 1540
1513 1514 1513 1518 1519 1522 1514 1512 1510 1512 1513 1515 1516 1518 1519 1520 1521 1522 1522 1523 1524 1524 1525 1526 1527 1528 1529 1530 1531 1531 1532 1533 1534 1534 1535 1536 1536 1536 1537 1537 1537 1538 1537 1538 1538 1538 1538 1538 1538
1513 1512 1516 1519 1526 1524 1517 1514 1511 1510 1511 1512 1514 1516 1517 1519 1519 1520 1521 1521 1522 1522 1523 1524 1525 1526 1527 1527 1528 1529 1530 1531 1531 1532 1533 1533 1534 1534 1535 1535 1536 1536 1536 1536 1536 1536 1536 1536 1536
1515 1515 1514 1515 1517 1523 1521 1515 1506 1508 1509 1511 1513 1514 1516 1517 1517 1518 1519 1519 1520 1520 1521 1522 1522 1523 1524 1525 1526 1527 1527 1528 1529 1529 1530 1531 1531 1532 1533 1533 1533 1534 1534 1534 1534 1534 1534 1534 1535
1512 1511 1513 1519 1518 1518 1519 1517 1505 1507 1510 1511 1512 1513 1514 1515 1516 1517 1518 1518 1518 1518 1519 1519 1520 1521 1521 1522 1523 1524 1524 1525 1526 1527 1528 1528 1529 1529 1530 1530 1531 1531 1531 1532 1532 1532 1532 1532 1532